This is the latest recevied weather packets stored in our database for station/object WW1TA. If no packets are shown the sender has not sent any weather packets the latest 10 day(s).
| Time | Temp. | Humidity | Pressure | Rain* | Wind** | Luminosity | Snow |
|---|---|---|---|---|---|---|---|
| 1777693831 | 16.67° C | 99% | 1013.6 hPa | 0 mm | - | 0 W/m² | - |
| 1777693528 | 16.67° C | 99% | 1013.8 hPa | 0 mm | - | 0 W/m² | - |
| 1777693227 | 16.67° C | 99% | 1013.8 hPa | 0 mm | - | 0 W/m² | - |
| 1777692925 | 16.67° C | 99% | 1013.7 hPa | 0 mm | - | 0 W/m² | - |
| 1777692622 | 16.67° C | 99% | 1014 hPa | 0 mm | - | 0 W/m² | - |
| 1777692317 | 16.67° C | 99% | 1014 hPa | 0 mm | - | 0 W/m² | - |
| 1777692015 | 17.22° C | 99% | 1014 hPa | 0 mm | - | 0 W/m² | - |
| 1777691712 | 17.22° C | 99% | 1014.4 hPa | 0 mm | - | 0 W/m² | - |
| 1777691410 | 17.22° C | 99% | 1014.2 hPa | 0 mm | - | 0 W/m² | - |
| 1777691109 | 17.22° C | 99% | 1014.3 hPa | 0 mm | - | 0 W/m² | - |
| 1777690806 | 17.22° C | 99% | 1014.5 hPa | 0 mm | - | 0 W/m² | - |
| 1777690503 | 17.22° C | 99% | 1014.5 hPa | 0 mm | - | 0 W/m² | - |
| 1777690201 | 17.22° C | 99% | 1014.5 hPa | 0.51 mm | - | 0 W/m² | - |
| 1777689898 | 17.22° C | 99% | 1014.9 hPa | 0.51 mm | - | 0 W/m² | - |
| 1777689597 | 17.22° C | 99% | 1014.9 hPa | 0 mm | - | 0 W/m² | - |
| 1777689294 | 17.22° C | 99% | 1014.9 hPa | 0 mm | - | 0 W/m² | - |
| 1777688991 | 17.22° C | 99% | 1015 hPa | 0.51 mm | - | 0 W/m² | - |
| 1777688687 | 17.22° C | 99% | 1015.1 hPa | 0.51 mm | - | 0 W/m² | - |
| 1777687779 | 17.22° C | 99% | 1015.2 hPa | 0 mm | - | 0 W/m² | - |
| 1777673840 | 18.33° C | 97% | 1013.3 hPa | 0.51 mm | - | 18 W/m² | - |
| 1777673537 | 18.33° C | 97% | 1013.3 hPa | 0.51 mm | - | 21 W/m² | - |
| 1777673235 | 18.89° C | 96% | 1013.3 hPa | 0.51 mm | - | 24 W/m² | - |
| 1777672932 | 18.89° C | 96% | 1013.1 hPa | 4.32 mm | - | 29 W/m² | - |
| 1777672629 | 18.89° C | 96% | 1013.5 hPa | 5.33 mm | - | 34 W/m² | - |
| 1777672324 | 18.89° C | 96% | 1013.3 hPa | 2.29 mm | - | 48 W/m² | - |
* Rain latest hour (hover to see other rain measurements)
** Current wind speed in m/s (hover to see current wind gust speed)